Time,TemperatureF,DewpointF,PressureIn,WindDirection,WindDirectionDegrees,WindSpeedMPH,WindSpeedGustMPH,Humidity,HourlyPrecipIn,Conditions,Clouds,dailyrainin,SoftwareType,DateUTC
2013-04-04 00:00:00,44.0,26.5,30.32,NNE,22,0.0,0.0,50,0.00,CLR,SKC,0.00,WeatherDisplay:10.37,2013-04-04 04:00:00,
2013-04-04 00:05:00,44.0,28.0,30.33,NNE,22,0.0,0.0,53,0.00,CLR,SKC,0.00,WeatherDisplay:10.37,2013-04-04 04:05:00,
2013-04-04 00:10:00,43.0,25.6,30.33,NNE,22,0.0,0.0,50,0.00,CLR,SKC,0.00,WeatherDisplay:10.37,2013-04-04 04:10:00,
2013-04-04 00:15:00,43.0,24.6,30.32,NNE,22,0.0,0.0,48,0.00,CLR,SKC,0.00,WeatherDisplay:10.37,2013-04-04 04:15:00,
2013-04-04 00:20:00,43.0,25.6,30.32,NNE,22,0.0,0.0,50,0.00,CLR,SKC,0.00,WeatherDisplay:10.37,2013-04-04 04:20:00,
2013-04-04 00:25:00,43.0,27.0,30.33,NNE,22,0.0,0.0,53,0.00,CLR,SKC,0.00,WeatherDisplay:10.37,2013-04-04 04:25:00,
2013-04-04 00:30:00,43.0,26.6,30.33,NNE,22,0.0,0.0,52,0.00,CLR,SKC,0.00,WeatherDisplay:10.37,2013-04-04 04:30:00,
2013-04-04 00:35:00,43.0,26.1,30.32,NNE,22,3.0,3.0,51,0.00,CLR,SKC,0.00,WeatherDisplay:10.37,2013-04-04 04:35:00,
2013-04-04 00:40:00,44.0,24.5,30.32,NNE,22,4.0,4.0,46,0.00,CLR,SKC,0.00,WeatherDisplay:10.37,2013-04-04 04:40:00,
2013-04-04 00:45:00,45.0,23.8,30.31,NNE,22,3.5,3.6,43,0.00,CLR,SKC,0.00,WeatherDisplay:10.37,2013-04-04 04:45:00,
2013-04-04 00:50:00,45.0,23.8,30.31,NNE,22,3.5,3.5,43,0.00,CLR,SKC,0.00,WeatherDisplay:10.37,2013-04-04 04:50:00,
2013-04-04 00:55:00,45.0,27.0,30.33,NNE,22,10.4,10.4,49,0.00,CLR,SKC,0.00,WeatherDisplay:10.37,2013-04-04 04:55:00,
2013-04-04 01:00:00,43.0,26.6,30.33,NE,45,15.0,15.0,52,0.00,CLR,SKC,0.00,WeatherDisplay:10.37,2013-04-04 05:00:00,
2013-04-04 01:05:00,43.0,26.6,30.34,NNE,22,12.7,12.7,52,0.00,CLR,SKC,0.00,WeatherDisplay:10.37,2013-04-04 05:05:00,
2013-04-04 01:10:00,43.0,27.0,30.34,NNE,22,11.5,11.5,53,0.00,CLR,SKC,0.00,WeatherDisplay:10.37,2013-04-04 05:10:00,
2013-04-04 01:15:00,43.0,26.6,30.34,NNE,22,10.4,10.4,52,0.00,CLR,SKC,0.00,WeatherDisplay:10.37,2013-04-04 05:15:00,
2013-04-04 01:20:00,42.0,25.6,30.34,ENE,67,11.5,11.5,52,0.00,CLR,SKC,0.00,WeatherDisplay:10.37,2013-04-04 05:20:00,
2013-04-04 01:25:00,43.0,25.6,30.34,NE,45,10.4,10.4,50,0.00,CLR,SKC,0.00,WeatherDisplay:10.37,2013-04-04 05:25:00,
2013-04-04 01:30:00,42.0,24.2,30.34,NNE,22,15.0,15.0,49,0.00,CLR,SKC,0.00,WeatherDisplay:10.37,2013-04-04 05:30:00,
2013-04-04 01:35:00,43.0,24.6,30.34,NNE,22,8.1,8.1,48,0.00,CLR,SKC,0.00,WeatherDisplay:10.37,2013-04-04 05:35:00,
2013-04-04 01:40:00,42.0,23.2,30.34,NE,45,10.4,10.4,47,0.00,CLR,SKC,0.00,WeatherDisplay:10.37,2013-04-04 05:40:00,
2013-04-04 01:45:00,43.0,23.1,30.34,NE,45,11.5,11.5,45,0.00,CLR,SKC,0.00,WeatherDisplay:10.37,2013-04-04 05:45:00,
2013-04-04 01:50:00,43.0,23.6,30.34,NE,45,12.7,12.7,46,0.00,CLR,SKC,0.00,WeatherDisplay:10.37,2013-04-04 05:50:00,
2013-04-04 01:55:00,43.0,23.1,30.34,NNE,22,12.7,12.7,45,0.00,CLR,SKC,0.00,WeatherDisplay:10.37,2013-04-04 05:55:00,
2013-04-04 02:00:00,42.0,22.7,30.34,NNE,22,10.4,10.4,46,0.00,CLR,SKC,0.00,WeatherDisplay:10.37,2013-04-04 06:00:00,
2013-04-04 02:05:00,43.0,23.1,30.33,NE,45,11.5,11.5,45,0.00,CLR,SKC,0.00,WeatherDisplay:10.37,2013-04-04 06:05:00,
2013-04-04 02:10:00,42.0,22.7,30.33,NE,45,11.0,11.0,46,0.00,CLR,SKC,0.00,WeatherDisplay:10.37,2013-04-04 06:10:00,
2013-04-04 02:15:00,43.0,23.6,30.33,NE,45,11.5,11.5,46,0.00,CLR,SKC,0.00,WeatherDisplay:10.37,2013-04-04 06:15:00,
2013-04-04 02:20:00,42.0,22.7,30.33,ENE,67,12.0,12.0,46,0.00,CLR,SKC,0.00,WeatherDisplay:10.37,2013-04-04 06:20:00,
2013-04-04 02:25:00,43.0,24.1,30.33,NNE,22,10.4,10.4,47,0.00,CLR,SKC,0.00,WeatherDisplay:10.37,2013-04-04 06:25:00,
2013-04-04 02:30:00,42.0,23.2,30.33,ENE,67,12.0,12.0,47,0.00,CLR,SKC,0.00,WeatherDisplay:10.37,2013-04-04 06:30:00,
2013-04-04 02:35:00,42.0,23.7,30.34,NE,45,10.4,10.4,48,0.00,CLR,SKC,0.00,WeatherDisplay:10.37,2013-04-04 06:35:00,
2013-04-04 02:40:00,42.0,24.2,30.34,NNE,22,15.0,15.0,49,0.00,CLR,SKC,0.00,WeatherDisplay:10.37,2013-04-04 06:40:00,
2013-04-04 02:45:00,42.0,24.2,30.33,ENE,67,11.5,11.5,49,0.00,CLR,SKC,0.00,WeatherDisplay:10.37,2013-04-04 06:45:00,
2013-04-04 02:50:00,42.0,25.2,30.33,NE,45,13.8,13.8,51,0.00,CLR,SKC,0.00,WeatherDisplay:10.37,2013-04-04 06:50:00,
2013-04-04 02:55:00,42.0,25.6,30.33,NE,45,10.4,10.4,52,0.00,CLR,SKC,0.00,WeatherDisplay:10.37,2013-04-04 06:55:00,
2013-04-04 03:00:00,42.0,26.5,30.33,ENE,67,11.5,11.5,54,0.00,CLR,SKC,0.00,WeatherDisplay:10.37,2013-04-04 07:00:00,
2013-04-04 03:05:00,42.0,27.4,30.33,NE,45,8.1,8.1,56,0.00,CLR,SKC,0.00,WeatherDisplay:10.37,2013-04-04 07:05:00,
2013-04-04 03:10:00,41.0,27.3,30.33,ENE,67,8.1,8.1,58,0.00,CLR,SKC,0.00,WeatherDisplay:10.37,2013-04-04 07:10:00,
2013-04-04 03:15:00,41.0,28.2,30.34,ENE,67,9.2,9.2,60,0.00,CLR,SKC,0.00,WeatherDisplay:10.37,2013-04-04 07:15:00,
2013-04-04 03:20:00,41.0,29.0,30.34,NNE,22,9.0,9.0,62,0.00,CLR,SKC,0.00,WeatherDisplay:10.37,2013-04-04 07:20:00,
2013-04-04 03:26:00,41.0,29.4,30.35,ENE,67,9.2,9.2,63,0.00,CLR,SKC,0.00,WeatherDisplay:10.37,2013-04-04 07:26:00,
2013-04-04 03:31:00,41.0,29.7,30.35,ENE,67,12.7,12.7,64,0.00,CLR,SKC,0.00,WeatherDisplay:10.37,2013-04-04 07:31:00,
2013-04-04 03:36:00,41.0,30.1,30.35,NE,45,10.4,10.4,65,0.00,CLR,SKC,0.00,WeatherDisplay:10.37,2013-04-04 07:36:00,
2013-04-04 03:41:00,41.0,30.5,30.35,East,90,12.7,12.7,66,0.00,CLR,SKC,0.00,WeatherDisplay:10.37,2013-04-04 07:41:00,
2013-04-04 03:46:00,41.0,30.5,30.35,ENE,67,10.4,10.4,66,0.00,CLR,SKC,0.00,WeatherDisplay:10.37,2013-04-04 07:46:00,
2013-04-04 03:51:00,41.0,30.9,30.35,ESE,112,16.1,16.1,67,0.00,CLR,SKC,0.00,WeatherDisplay:10.37,2013-04-04 07:51:00,
2013-04-04 03:56:00,41.0,30.9,30.35,East,90,10.4,10.4,67,0.00,CLR,SKC,0.00,WeatherDisplay:10.37,2013-04-04 07:56:00,
2013-04-04 04:01:00,41.0,30.9,30.35,NE,45,8.1,8.1,67,0.00,CLR,SKC,0.00,WeatherDisplay:10.37,2013-04-04 08:01:00,
2013-04-04 04:06:00,41.0,31.2,30.34,East,90,11.5,11.5,68,0.00,CLR,SKC,0.00,WeatherDisplay:10.37,2013-04-04 08:06:00,
2013-04-04 04:11:00,40.0,30.3,30.34,ESE,112,11.5,11.5,68,0.00,CLR,SKC,0.00,WeatherDisplay:10.37,2013-04-04 08:11:00,
2013-04-04 04:16:00,40.0,30.3,30.35,East,90,10.4,10.4,68,0.00,CLR,SKC,0.00,WeatherDisplay:10.37,2013-04-04 08:16:00,
2013-04-04 04:21:00,40.0,30.3,30.35,ENE,67,11.5,11.5,68,0.00,CLR,SKC,0.00,WeatherDisplay:10.37,2013-04-04 08:21:00,
2013-04-04 04:26:00,40.0,30.3,30.35,East,90,10.4,10.4,68,0.00,CLR,SKC,0.00,WeatherDisplay:10.37,2013-04-04 08:26:00,
2013-04-04 04:31:00,40.0,30.3,30.35,NNE,22,9.2,9.2,68,0.00,CLR,SKC,0.00,WeatherDisplay:10.37,2013-04-04 08:31:00,
2013-04-04 04:36:00,40.0,30.3,30.35,NE,45,8.1,8.1,68,0.00,CLR,SKC,0.00,WeatherDisplay:10.37,2013-04-04 08:36:00,
2013-04-04 04:41:00,40.0,30.6,30.35,East,90,5.8,5.8,69,0.00,CLR,SKC,0.00,WeatherDisplay:10.37,2013-04-04 08:41:00,
2013-04-04 04:46:00,40.0,30.3,30.35,ENE,67,8.1,8.1,68,0.00,CLR,SKC,0.00,WeatherDisplay:10.37,2013-04-04 08:46:00,
2013-04-04 04:51:00,40.0,30.6,30.35,East,90,6.9,6.9,69,0.00,CLR,SKC,0.00,WeatherDisplay:10.37,2013-04-04 08:51:00,
2013-04-04 04:56:00,40.0,30.3,30.35,ESE,112,6.0,6.0,68,0.00,CLR,SKC,0.00,WeatherDisplay:10.37,2013-04-04 08:56:00,
2013-04-04 05:01:00,40.0,30.3,30.35,ENE,67,9.2,9.2,68,0.00,CLR,SKC,0.00,WeatherDisplay:10.37,2013-04-04 09:01:00,
2013-04-04 05:06:00,40.0,30.3,30.36,South,180,8.1,8.1,68,0.00,CLR,SKC,0.00,WeatherDisplay:10.37,2013-04-04 09:06:00,
2013-04-04 05:11:00,39.0,29.3,30.36,NE,45,6.9,6.9,68,0.00,CLR,SKC,0.00,WeatherDisplay:10.37,2013-04-04 09:11:00,
2013-04-04 05:16:00,39.0,29.3,30.37,NE,45,6.9,6.9,68,0.00,CLR,SKC,0.00,WeatherDisplay:10.37,2013-04-04 09:16:00,
2013-04-04 05:21:00,39.0,29.3,30.37,ENE,67,8.1,8.1,68,0.00,CLR,SKC,0.00,WeatherDisplay:10.37,2013-04-04 09:21:00,
2013-04-04 05:26:00,39.0,29.3,30.37,ENE,67,5.8,5.8,68,0.00,CLR,SKC,0.00,WeatherDisplay:10.37,2013-04-04 09:26:00,
2013-04-04 05:31:00,39.0,29.3,30.37,ENE,67,9.2,9.2,68,0.00,CLR,SKC,0.00,WeatherDisplay:10.37,2013-04-04 09:31:00,
2013-04-04 05:36:00,39.0,29.3,30.37,NNE,22,10.4,10.4,68,0.00,CLR,SKC,0.00,WeatherDisplay:10.37,2013-04-04 09:36:00,
2013-04-04 05:41:00,39.0,29.3,30.37,NNE,22,6.9,6.9,68,0.00,CLR,SKC,0.00,WeatherDisplay:10.37,2013-04-04 09:41:00,
2013-04-04 05:46:00,39.0,30.0,30.37,East,90,4.6,4.6,70,0.00,CLR,SKC,0.00,WeatherDisplay:10.37,2013-04-04 09:46:00,
2013-04-04 05:51:00,38.0,28.7,30.37,NE,45,6.9,6.9,69,0.00,CLR,SKC,0.00,WeatherDisplay:10.37,2013-04-04 09:51:00,
2013-04-04 05:56:00,38.0,29.1,30.38,NE,45,6.9,6.9,70,0.00,CLR,SKC,0.00,WeatherDisplay:10.37,2013-04-04 09:56:00,
2013-04-04 06:01:00,38.0,29.1,30.38,NE,45,9.2,9.2,70,0.00,CLR,SKC,0.00,WeatherDisplay:10.37,2013-04-04 10:01:00,
2013-04-04 06:06:00,38.0,28.7,30.38,NE,45,6.9,6.9,69,0.00,CLR,SKC,0.00,WeatherDisplay:10.37,2013-04-04 10:06:00,
2013-04-04 06:11:00,38.0,29.1,30.38,NE,45,9.2,9.2,70,0.00,CLR,SKC,0.00,WeatherDisplay:10.37,2013-04-04 10:11:00,
2013-04-04 06:16:00,38.0,29.1,30.38,NE,45,9.2,9.2,70,0.00,CLR,SKC,0.00,WeatherDisplay:10.37,2013-04-04 10:16:00,
2013-04-04 06:21:00,38.0,29.1,30.38,ENE,67,6.9,6.9,70,0.00,CLR,SKC,0.00,WeatherDisplay:10.37,2013-04-04 10:21:00,
2013-04-04 06:26:00,37.0,28.5,30.38,East,90,10.4,10.4,71,0.00,CLR,SKC,0.00,WeatherDisplay:10.37,2013-04-04 10:26:00,
2013-04-04 06:31:00,37.0,28.5,30.38,ENE,67,6.0,6.0,71,0.00,CLR,SKC,0.00,WeatherDisplay:10.37,2013-04-04 10:31:00,
2013-04-04 06:36:00,37.0,28.5,30.39,NE,45,4.6,4.6,71,0.00,CLR,SKC,0.00,WeatherDisplay:10.37,2013-04-04 10:36:00,
2013-04-04 06:41:00,37.0,28.5,30.39,ENE,67,7.0,7.0,71,0.00,CLR,SKC,0.00,WeatherDisplay:10.37,2013-04-04 10:41:00,
2013-04-04 06:46:00,37.0,28.5,30.40,ENE,67,6.9,6.9,71,0.00,CLR,SKC,0.00,WeatherDisplay:10.37,2013-04-04 10:46:00,
2013-04-04 06:51:00,37.0,28.5,30.40,ENE,67,8.1,8.1,71,0.00,CLR,SKC,0.00,WeatherDisplay:10.37,2013-04-04 10:51:00,
2013-04-04 06:56:00,37.0,28.5,30.40,ENE,67,6.9,6.9,71,0.00,CLR,SKC,0.00,WeatherDisplay:10.37,2013-04-04 10:56:00,
2013-04-04 07:01:00,37.0,28.5,30.40,NNE,22,9.2,9.2,71,0.00,CLR,SKC,0.00,WeatherDisplay:10.37,2013-04-04 11:01:00,
2013-04-04 07:07:00,37.0,28.5,30.40,NE,45,6.9,6.9,71,0.00,CLR,SKC,0.00,WeatherDisplay:10.37,2013-04-04 11:07:00,
2013-04-04 07:12:00,37.0,28.1,30.40,NE,45,11.5,11.5,70,0.00,CLR,SKC,0.00,WeatherDisplay:10.37,2013-04-04 11:12:00,
2013-04-04 07:17:00,37.0,28.1,30.40,East,90,8.1,8.1,70,0.00,CLR,SKC,0.00,WeatherDisplay:10.37,2013-04-04 11:17:00,
2013-04-04 07:22:00,37.0,28.1,30.40,ENE,67,9.2,9.2,70,0.00,CLR,SKC,0.00,WeatherDisplay:10.37,2013-04-04 11:22:00,
2013-04-04 07:27:00,37.0,27.8,30.40,NE,45,9.2,9.2,69,0.00,CLR,SKC,0.00,WeatherDisplay:10.37,2013-04-04 11:27:00,
2013-04-04 07:32:00,37.0,27.8,30.40,ENE,67,8.1,8.1,69,0.00,CLR,SKC,0.00,WeatherDisplay:10.37,2013-04-04 11:32:00,
2013-04-04 07:37:00,37.0,27.1,30.41,East,90,9.2,9.2,67,0.00,CLR,SKC,0.00,WeatherDisplay:10.37,2013-04-04 11:37:00,
2013-04-04 07:42:00,37.0,27.1,30.41,ENE,67,8.1,8.1,67,0.00,CLR,SKC,0.00,WeatherDisplay:10.37,2013-04-04 11:42:00,
2013-04-04 07:47:00,37.0,27.1,30.42,East,90,8.1,8.1,67,0.00,CLR,SKC,0.00,WeatherDisplay:10.37,2013-04-04 11:47:00,
2013-04-04 07:53:00,37.0,27.1,30.42,NE,45,7.0,7.0,67,0.00,CLR,SKC,0.00,WeatherDisplay:10.37,2013-04-04 11:53:00,
2013-04-04 07:58:00,37.0,27.1,30.41,ENE,67,8.1,8.1,67,0.00,CLR,SKC,0.00,WeatherDisplay:10.37,2013-04-04 11:58:00,
2013-04-04 08:03:00,37.0,27.1,30.41,ENE,67,10.4,10.4,67,0.00,CLR,SKC,0.00,WeatherDisplay:10.37,2013-04-04 12:03:00,
2013-04-04 08:08:00,37.0,26.7,30.40,NE,45,10.4,10.4,66,0.00,CLR,SKC,0.00,WeatherDisplay:10.37,2013-04-04 12:08:00,
2013-04-04 08:13:00,37.0,25.9,30.40,NE,45,12.0,12.0,64,0.00,CLR,SKC,0.00,WeatherDisplay:10.37,2013-04-04 12:13:00,
2013-04-04 08:18:00,38.0,26.9,30.41,ENE,67,9.2,9.2,64,0.00,CLR,SKC,0.00,WeatherDisplay:10.37,2013-04-04 12:18:00,
2013-04-04 08:23:00,38.0,26.9,30.41,East,90,9.2,9.2,64,0.00,CLR,SKC,0.00,WeatherDisplay:10.37,2013-04-04 12:23:00,
2013-04-04 08:28:00,38.0,26.9,30.42,NE,45,9.2,9.2,64,0.00,CLR,SKC,0.00,WeatherDisplay:10.37,2013-04-04 12:28:00,
2013-04-04 08:33:00,38.0,26.9,30.42,ESE,112,9.2,9.2,64,0.00,CLR,SKC,0.00,WeatherDisplay:10.37,2013-04-04 12:33:00,
2013-04-04 08:38:00,38.0,26.1,30.41,ENE,67,15.0,15.0,62,0.00,CLR,SKC,0.00,WeatherDisplay:10.37,2013-04-04 12:38:00,
2013-04-04 08:43:00,38.0,26.1,30.41,NNE,22,10.4,10.4,62,0.00,CLR,SKC,0.00,WeatherDisplay:10.37,2013-04-04 12:43:00,
2013-04-04 08:48:00,38.0,26.1,30.41,ESE,112,9.2,9.2,62,0.00,CLR,SKC,0.00,WeatherDisplay:10.37,2013-04-04 12:48:00,
2013-04-04 08:53:00,38.0,26.1,30.41,NNE,22,12.0,12.0,62,0.00,CLR,SKC,0.00,WeatherDisplay:10.37,2013-04-04 12:53:00,
2013-04-04 08:58:00,38.0,25.7,30.41,ENE,67,11.5,11.5,61,0.00,CLR,SKC,0.00,WeatherDisplay:10.37,2013-04-04 12:58:00,
2013-04-04 09:03:00,39.0,26.3,30.41,ENE,67,11.5,11.5,60,0.00,CLR,SKC,0.00,WeatherDisplay:10.37,2013-04-04 13:03:00,
2013-04-04 09:08:00,39.0,26.3,30.39,North,360,8.1,8.1,60,0.00,CLR,SKC,0.00,WeatherDisplay:10.37,2013-04-04 13:08:00,
2013-04-04 09:13:00,39.0,25.9,30.39,NE,45,11.5,11.5,59,0.00,CLR,SKC,0.00,WeatherDisplay:10.37,2013-04-04 13:13:00,
2013-04-04 09:18:00,40.0,26.8,30.39,NNE,22,11.5,11.5,59,0.00,CLR,SKC,0.00,WeatherDisplay:10.37,2013-04-04 13:18:00,
2013-04-04 09:23:00,40.0,26.8,30.39,ENE,67,11.0,11.0,59,0.00,CLR,SKC,0.00,WeatherDisplay:10.37,2013-04-04 13:23:00,
2013-04-04 09:28:00,40.0,26.0,30.38,NE,45,10.4,10.4,57,0.00,CLR,SKC,0.00,WeatherDisplay:10.37,2013-04-04 13:28:00,
2013-04-04 09:33:00,40.0,26.0,30.38,ESE,112,9.2,9.2,57,0.00,CLR,SKC,0.00,WeatherDisplay:10.37,2013-04-04 13:33:00,
2013-04-04 09:38:00,40.0,26.0,30.38,East,90,10.0,10.0,57,0.00,CLR,SKC,0.00,WeatherDisplay:10.37,2013-04-04 13:38:00,
2013-04-04 09:43:00,40.0,26.0,30.38,NE,45,11.5,11.5,57,0.00,CLR,SKC,0.00,WeatherDisplay:10.37,2013-04-04 13:43:00,
2013-04-04 09:48:00,40.0,26.0,30.37,ENE,67,9.2,9.2,57,0.00,CLR,SKC,0.00,WeatherDisplay:10.37,2013-04-04 13:48:00,
2013-04-04 09:53:00,41.0,26.5,30.37,SE,135,11.5,11.5,56,0.00,CLR,SKC,0.00,WeatherDisplay:10.37,2013-04-04 13:53:00,
2013-04-04 09:58:00,41.0,26.5,30.37,ENE,67,13.8,13.8,56,0.00,CLR,SKC,0.00,WeatherDisplay:10.37,2013-04-04 13:58:00,
2013-04-04 10:03:00,41.0,26.5,30.37,SSE,157,13.8,13.8,56,0.00,CLR,SKC,0.00,WeatherDisplay:10.37,2013-04-04 14:03:00,
2013-04-04 10:08:00,42.0,27.0,30.36,ENE,67,11.5,11.5,55,0.00,CLR,SKC,0.00,WeatherDisplay:10.37,2013-04-04 14:08:00,
2013-04-04 10:13:00,42.0,27.0,30.36,ENE,67,11.5,11.5,55,0.00,CLR,SKC,0.00,WeatherDisplay:10.37,2013-04-04 14:13:00,
2013-04-04 10:18:00,42.0,26.5,30.36,NE,45,16.0,16.0,54,0.00,CLR,SKC,0.00,WeatherDisplay:10.37,2013-04-04 14:18:00,
2013-04-04 10:23:00,42.0,26.5,30.36,ESE,112,14.0,14.0,54,0.00,CLR,SKC,0.00,WeatherDisplay:10.37,2013-04-04 14:23:00,
2013-04-04 10:29:00,42.0,27.0,30.35,ESE,112,11.5,11.5,55,0.00,CLR,SKC,0.00,WeatherDisplay:10.37,2013-04-04 14:29:00,
2013-04-04 10:34:00,42.0,26.5,30.35,ESE,112,17.3,17.3,54,0.00,CLR,SKC,0.00,WeatherDisplay:10.37,2013-04-04 14:34:00,
2013-04-04 10:39:00,43.0,27.5,30.35,NNE,22,10.4,10.4,54,0.00,CLR,SKC,0.00,WeatherDisplay:10.37,2013-04-04 14:39:00,
2013-04-04 10:44:00,43.0,27.5,30.35,ESE,112,12.0,12.0,54,0.00,CLR,SKC,0.00,WeatherDisplay:10.37,2013-04-04 14:44:00,
2013-04-04 10:49:00,44.0,28.4,30.34,ESE,112,9.0,9.0,54,0.00,CLR,SKC,0.00,WeatherDisplay:10.37,2013-04-04 14:49:00,
2013-04-04 10:54:00,45.0,29.8,30.34,East,90,13.8,13.8,55,0.00,CLR,SKC,0.00,WeatherDisplay:10.37,2013-04-04 14:54:00,
2013-04-04 10:59:00,45.0,28.9,30.33,ESE,112,9.0,9.0,53,0.00,CLR,SKC,0.00,WeatherDisplay:10.37,2013-04-04 14:59:00,
2013-04-04 11:04:00,45.0,28.9,30.33,SE,135,10.0,10.0,53,0.00,CLR,SKC,0.00,WeatherDisplay:10.37,2013-04-04 15:04:00,
2013-04-04 11:09:00,44.0,28.4,30.33,ENE,67,13.8,13.8,54,0.00,CLR,SKC,0.00,WeatherDisplay:10.37,2013-04-04 15:09:00,
2013-04-04 11:14:00,45.0,29.3,30.32,East,90,15.0,15.0,54,0.00,CLR,SKC,0.00,WeatherDisplay:10.37,2013-04-04 15:14:00,
2013-04-04 11:19:00,44.0,28.4,30.32,ESE,112,12.7,12.7,54,0.00,CLR,SKC,0.00,WeatherDisplay:10.37,2013-04-04 15:19:00,
2013-04-04 11:24:00,45.0,28.4,30.33,East,90,11.5,11.5,52,0.00,CLR,SKC,0.00,WeatherDisplay:10.37,2013-04-04 15:24:00,
2013-04-04 11:29:00,45.0,28.9,30.33,ESE,115,7.0,15.0,53,0.00,CLR,SKC,0.00,WeatherDisplay:10.37,2013-04-04 15:29:00,
2013-04-04 11:35:00,45.0,28.4,30.33,ENE,67,10.4,10.4,52,0.00,CLR,SKC,0.00,WeatherDisplay:10.37,2013-04-04 15:35:00,
2013-04-04 11:40:00,45.0,28.9,30.33,ESE,112,10.4,10.4,53,0.00,CLR,SKC,0.00,WeatherDisplay:10.37,2013-04-04 15:40:00,
2013-04-04 11:45:00,45.0,28.4,30.32,ESE,112,11.5,11.5,52,0.00,CLR,SKC,0.00,WeatherDisplay:10.37,2013-04-04 15:45:00,
2013-04-04 11:50:00,45.0,28.4,30.32,East,90,13.8,13.8,52,0.00,CLR,SKC,0.00,WeatherDisplay:10.37,2013-04-04 15:50:00,
2013-04-04 11:55:00,45.0,28.9,30.31,East,90,10.4,10.4,53,0.00,CLR,SKC,0.00,WeatherDisplay:10.37,2013-04-04 15:55:00,
2013-04-04 12:00:00,45.0,28.9,30.31,ESE,112,12.7,12.7,53,0.00,CLR,SKC,0.00,WeatherDisplay:10.37,2013-04-04 16:00:00,
2013-04-04 12:05:00,45.0,28.9,30.31,ESE,112,9.2,9.2,53,0.00,CLR,SKC,0.00,WeatherDisplay:10.37,2013-04-04 16:05:00,
2013-04-04 12:10:00,45.0,29.3,30.31,ESE,112,8.1,8.1,54,0.00,CLR,SKC,0.00,WeatherDisplay:10.37,2013-04-04 16:10:00,
2013-04-04 12:15:00,45.0,29.8,30.30,ESE,112,9.2,9.2,55,0.00,CLR,SKC,0.00,WeatherDisplay:10.37,2013-04-04 16:15:00,
2013-04-04 12:20:00,45.0,29.8,30.30,East,90,6.9,6.9,55,0.00,CLR,SKC,0.00,WeatherDisplay:10.37,2013-04-04 16:20:00,
2013-04-04 12:26:00,45.0,30.7,30.30,East,90,10.0,10.0,57,0.00,CLR,SKC,0.00,WeatherDisplay:10.37,2013-04-04 16:26:00,
2013-04-04 12:31:00,45.0,30.7,30.30,ESE,112,11.5,11.5,57,0.00,CLR,SKC,0.00,WeatherDisplay:10.37,2013-04-04 16:31:00,
2013-04-04 12:37:00,45.0,31.9,30.30,ESE,112,10.0,10.0,60,0.00,CLR,SKC,0.00,WeatherDisplay:10.37,2013-04-04 16:37:00,
2013-04-04 12:42:00,45.0,30.7,30.30,NE,45,10.4,10.4,57,0.00,CLR,SKC,0.00,WeatherDisplay:10.37,2013-04-04 16:42:00,
2013-04-04 12:48:00,46.0,31.2,30.27,ESE,112,13.8,13.8,56,0.00,CLR,SKC,0.00,WeatherDisplay:10.37,2013-04-04 16:48:00,
2013-04-04 12:53:00,46.0,31.2,30.27,NE,45,11.5,11.5,56,0.00,CLR,SKC,0.00,WeatherDisplay:10.37,2013-04-04 16:53:00,
2013-04-04 12:58:00,46.0,30.7,30.26,NNE,22,11.5,11.5,55,0.00,CLR,SKC,0.00,WeatherDisplay:10.37,2013-04-04 16:58:00,
2013-04-04 13:03:00,46.0,30.7,30.26,ENE,67,13.8,13.8,55,0.03,RA,SKC,0.03,WeatherDisplay:10.37,2013-04-04 17:03:00,
2013-04-04 13:08:00,46.0,30.3,30.26,ESE,112,13.0,13.0,54,0.03,RA,SKC,0.03,WeatherDisplay:10.37,2013-04-04 17:08:00,
2013-04-04 13:13:00,47.0,31.7,30.26,ENE,67,10.4,10.4,55,0.03,CLR,SKC,0.03,WeatherDisplay:10.37,2013-04-04 17:13:00,
2013-04-04 13:18:00,47.0,31.7,30.25,NE,45,10.4,10.4,55,0.03,CLR,SKC,0.03,WeatherDisplay:10.37,2013-04-04 17:18:00,
2013-04-04 13:23:00,47.0,31.7,30.25,ENE,67,10.4,10.4,55,0.03,CLR,SKC,0.03,WeatherDisplay:10.37,2013-04-04 17:23:00,
2013-04-04 13:28:00,47.0,31.7,30.24,ESE,112,9.2,9.2,55,0.03,CLR,SKC,0.03,WeatherDisplay:10.37,2013-04-04 17:28:00,
2013-04-04 13:33:00,47.0,31.2,30.24,ESE,112,10.0,10.0,54,0.03,CLR,SKC,0.03,WeatherDisplay:10.37,2013-04-04 17:33:00,
2013-04-04 13:38:00,47.0,31.7,30.23,East,90,13.8,13.8,55,0.03,CLR,SKC,0.03,WeatherDisplay:10.37,2013-04-04 17:38:00,
2013-04-04 13:43:00,47.0,31.7,30.23,East,90,11.5,11.5,55,0.03,CLR,SKC,0.03,WeatherDisplay:10.37,2013-04-04 17:43:00,
2013-04-04 13:48:00,46.0,31.6,30.24,ENE,67,10.4,10.4,57,0.03,CLR,SKC,0.03,WeatherDisplay:10.37,2013-04-04 17:48:00,
2013-04-04 13:53:00,46.0,32.0,30.24,East,90,9.2,9.2,58,0.03,CLR,SKC,0.03,WeatherDisplay:10.37,2013-04-04 17:53:00,
2013-04-04 13:58:00,46.0,33.3,30.24,SE,135,6.9,6.9,61,0.03,CLR,SKC,0.03,WeatherDisplay:10.37,2013-04-04 17:58:00,
2013-04-04 14:03:00,46.0,33.3,30.24,ENE,67,8.1,8.1,61,0.00,CLR,SKC,0.03,WeatherDisplay:10.37,2013-04-04 18:03:00,
2013-04-04 14:08:00,46.0,33.7,30.24,SE,135,11.5,11.5,62,0.00,CLR,SKC,0.03,WeatherDisplay:10.37,2013-04-04 18:08:00,
2013-04-04 14:13:00,46.0,33.3,30.24,ESE,112,12.7,12.7,61,0.00,CLR,SKC,0.03,WeatherDisplay:10.37,2013-04-04 18:13:00,
2013-04-04 14:18:00,46.0,33.7,30.25,ESE,112,10.4,10.4,62,0.00,CLR,SKC,0.03,WeatherDisplay:10.37,2013-04-04 18:18:00,
2013-04-04 14:23:00,45.0,33.5,30.25,ESE,112,8.1,8.1,64,0.00,CLR,SKC,0.03,WeatherDisplay:10.37,2013-04-04 18:23:00,
2013-04-04 14:28:00,45.0,35.4,30.25,NE,45,5.8,5.8,69,0.00,CLR,SKC,0.03,WeatherDisplay:10.37,2013-04-04 18:28:00,
2013-04-04 14:33:00,44.0,35.2,30.25,ENE,67,5.8,5.8,71,0.01,RA,SKC,0.04,WeatherDisplay:10.37,2013-04-04 18:33:00,
2013-04-04 14:38:00,44.0,36.6,30.25,ENE,67,6.0,6.0,75,0.01,RA,SKC,0.04,WeatherDisplay:10.37,2013-04-04 18:38:00,
2013-04-04 14:43:00,44.0,36.9,30.25,ESE,112,5.8,5.8,76,0.01,CLR,SKC,0.04,WeatherDisplay:10.37,2013-04-04 18:43:00,
2013-04-04 14:48:00,43.0,36.6,30.25,NE,45,4.6,4.6,78,0.02,RA,SKC,0.05,WeatherDisplay:10.37,2013-04-04 18:48:00,
2013-04-04 14:53:00,43.0,36.9,30.25,NE,45,4.6,4.6,79,0.03,RA,SKC,0.06,WeatherDisplay:10.37,2013-04-04 18:53:00,
2013-04-04 14:58:00,43.0,37.9,30.25,ENE,67,5.8,5.8,82,0.04,RA,SKC,0.07,WeatherDisplay:10.37,2013-04-04 18:58:00,
2013-04-04 15:03:00,42.0,37.2,30.25,ENE,67,5.8,5.8,83,0.04,RA,SKC,0.07,WeatherDisplay:10.37,2013-04-04 19:03:00,
2013-04-04 15:08:00,42.0,38.1,30.24,NNE,22,4.6,4.6,86,0.05,RA,SKC,0.08,WeatherDisplay:10.37,2013-04-04 19:08:00,
2013-04-04 15:13:00,42.0,38.7,30.24,NE,45,4.6,4.6,88,0.05,RA,SKC,0.08,WeatherDisplay:10.37,2013-04-04 19:13:00,
2013-04-04 15:18:00,42.0,39.0,30.25,NNE,22,5.0,5.0,89,0.06,RA,SKC,0.09,WeatherDisplay:10.37,2013-04-04 19:18:00,
2013-04-04 15:23:00,42.0,39.8,30.25,NE,45,6.9,6.9,92,0.06,RA,SKC,0.09,WeatherDisplay:10.37,2013-04-04 19:23:00,
2013-04-04 15:28:00,42.0,40.7,30.23,ENE,67,8.1,8.1,95,0.06,CLR,SKC,0.09,WeatherDisplay:10.37,2013-04-04 19:28:00,
2013-04-04 15:33:00,42.0,40.9,30.23,NE,45,6.9,6.9,96,0.06,RA,SKC,0.10,WeatherDisplay:10.37,2013-04-04 19:33:00,
2013-04-04 15:38:00,42.0,41.5,30.22,NNE,22,6.9,6.9,98,0.07,RA,SKC,0.11,WeatherDisplay:10.37,2013-04-04 19:38:00,
2013-04-04 15:43:00,41.0,40.2,30.22,NNE,22,8.1,8.1,97,0.07,RA,SKC,0.12,WeatherDisplay:10.37,2013-04-04 19:43:00,
2013-04-04 15:48:00,41.0,40.5,30.23,NNE,22,9.2,9.2,98,0.08,RA,SKC,0.13,WeatherDisplay:10.37,2013-04-04 19:48:00,
2013-04-04 15:53:00,41.0,41.0,30.23,NE,45,9.2,9.2,100,0.08,RA,SKC,0.14,WeatherDisplay:10.37,2013-04-04 19:53:00,
2013-04-04 15:58:00,41.0,41.0,30.22,NE,45,10.4,10.4,100,0.09,RA,SKC,0.16,WeatherDisplay:10.37,2013-04-04 19:58:00,
2013-04-04 16:03:00,40.0,40.0,30.22,NNE,22,9.2,9.2,100,0.11,RA,SKC,0.18,WeatherDisplay:10.37,2013-04-04 20:03:00,
2013-04-04 16:08:00,40.0,40.0,30.22,NNE,22,8.1,8.1,100,0.13,RA,SKC,0.21,WeatherDisplay:10.37,2013-04-04 20:08:00,
2013-04-04 16:13:00,40.0,40.0,30.22,ENE,67,7.0,7.0,100,0.14,RA,SKC,0.22,WeatherDisplay:10.37,2013-04-04 20:13:00,
2013-04-04 16:18:00,40.0,40.0,30.23,ENE,67,8.1,8.1,100,0.14,RA,SKC,0.23,WeatherDisplay:10.37,2013-04-04 20:18:00,
2013-04-04 16:23:00,40.0,40.0,30.23,NNE,22,9.2,9.2,100,0.14,RA,SKC,0.23,WeatherDisplay:10.37,2013-04-04 20:23:00,
2013-04-04 16:28:00,40.0,40.0,30.23,NE,45,9.2,9.2,100,0.15,RA,SKC,0.25,WeatherDisplay:10.37,2013-04-04 20:28:00,
2013-04-04 16:33:00,40.0,40.0,30.23,NNE,22,9.0,9.0,100,0.15,RA,SKC,0.25,WeatherDisplay:10.37,2013-04-04 20:33:00,
2013-04-04 16:38:00,40.0,40.0,30.21,ENE,67,11.5,11.5,100,0.15,RA,SKC,0.26,WeatherDisplay:10.37,2013-04-04 20:38:00,
2013-04-04 16:43:00,40.0,40.0,30.21,NNE,22,8.1,8.1,100,0.16,RA,SKC,0.27,WeatherDisplay:10.37,2013-04-04 20:43:00,
2013-04-04 16:48:00,40.0,40.0,30.21,NNE,22,11.5,11.5,100,0.14,RA,SKC,0.27,WeatherDisplay:10.37,2013-04-04 20:48:00,
2013-04-04 16:53:00,40.0,40.0,30.21,ENE,67,9.2,9.2,100,0.13,CLR,SKC,0.27,WeatherDisplay:10.37,2013-04-04 20:53:00,
2013-04-04 16:58:00,40.0,40.0,30.21,NE,45,9.2,9.2,100,0.12,RA,SKC,0.28,WeatherDisplay:10.37,2013-04-04 20:58:00,
2013-04-04 17:03:00,40.0,40.0,30.21,NE,45,8.1,8.1,100,0.10,RA,SKC,0.28,WeatherDisplay:10.37,2013-04-04 21:03:00,
2013-04-04 17:08:00,40.0,40.0,30.21,ESE,112,13.8,13.8,100,0.07,,SKC,0.28,WeatherDisplay:10.37,2013-04-04 21:08:00,
2013-04-04 17:13:00,40.0,40.0,30.21,NE,45,9.2,9.2,100,0.07,RA,SKC,0.29,WeatherDisplay:10.37,2013-04-04 21:13:00,
2013-04-04 17:18:00,40.0,40.0,30.20,NNE,22,10.4,10.4,100,0.06,RA,SKC,0.29,WeatherDisplay:10.37,2013-04-04 21:18:00,
2013-04-04 17:23:00,39.0,39.0,30.20,NNE,22,11.5,11.5,100,0.06,CLR,SKC,0.29,WeatherDisplay:10.37,2013-04-04 21:23:00,
2013-04-04 17:28:00,39.0,39.0,30.19,NNE,22,9.2,9.2,100,0.05,CLR,SKC,0.29,WeatherDisplay:10.37,2013-04-04 21:28:00,
2013-04-04 17:33:00,39.0,39.0,30.19,ENE,67,11.5,11.5,100,0.04,CLR,SKC,0.29,WeatherDisplay:10.37,2013-04-04 21:33:00,
2013-04-04 17:38:00,39.0,39.0,30.19,NE,45,12.0,12.0,100,0.03,CLR,SKC,0.29,WeatherDisplay:10.37,2013-04-04 21:38:00,
2013-04-04 17:43:00,39.0,39.0,30.19,ENE,67,15.0,15.0,100,0.02,CLR,SKC,0.30,WeatherDisplay:10.37,2013-04-04 21:43:00,
2013-04-04 17:48:00,39.0,39.0,30.18,NE,45,16.1,16.1,100,0.03,RA,SKC,0.30,WeatherDisplay:10.37,2013-04-04 21:48:00,
2013-04-04 17:54:00,39.0,39.0,30.18,NE,45,11.5,11.5,100,0.03,,SKC,0.31,WeatherDisplay:10.37,2013-04-04 21:54:00,
2013-04-04 17:59:00,39.0,39.0,30.18,NNE,22,15.0,15.0,100,0.03,RA,SKC,0.31,WeatherDisplay:10.37,2013-04-04 21:59:00,
2013-04-04 18:04:00,39.0,39.0,30.18,East,90,11.5,11.5,100,0.03,RA,SKC,0.31,WeatherDisplay:10.37,2013-04-04 22:04:00,
2013-04-04 18:09:00,39.0,39.0,30.18,NE,45,11.5,11.5,100,0.05,RA,SKC,0.33,WeatherDisplay:10.37,2013-04-04 22:09:00,
2013-04-04 18:14:00,39.0,39.0,30.18,NE,45,13.8,13.8,100,0.04,RA,SKC,0.34,WeatherDisplay:10.37,2013-04-04 22:14:00,
2013-04-04 18:19:00,39.0,39.0,30.17,ENE,67,11.5,11.5,100,0.06,RA,SKC,0.35,WeatherDisplay:10.37,2013-04-04 22:19:00,
2013-04-04 18:25:00,39.0,39.0,30.16,NNE,22,15.0,15.0,100,0.07,RA,SKC,0.36,WeatherDisplay:10.37,2013-04-04 22:25:00,
2013-04-04 18:30:00,39.0,39.0,30.16,ENE,67,14.0,14.0,100,0.08,RA,SKC,0.37,WeatherDisplay:10.37,2013-04-04 22:30:00,
2013-04-04 18:35:00,39.0,39.0,30.17,North,360,9.2,9.2,100,0.08,RA,SKC,0.37,WeatherDisplay:10.37,2013-04-04 22:35:00,
2013-04-04 18:40:00,39.0,39.0,30.17,ENE,67,11.5,11.5,100,0.10,RA,SKC,0.39,WeatherDisplay:10.37,2013-04-04 22:40:00,
2013-04-04 18:45:00,39.0,39.0,30.16,ENE,67,9.2,9.2,100,0.09,RA,SKC,0.40,WeatherDisplay:10.37,2013-04-04 22:45:00,
2013-04-04 18:50:00,39.0,39.0,30.16,NE,45,12.7,12.7,100,0.11,RA,SKC,0.41,WeatherDisplay:10.37,2013-04-04 22:50:00,
2013-04-04 18:55:00,38.0,38.0,30.14,NE,45,16.0,16.0,100,0.11,RA,SKC,0.42,WeatherDisplay:10.37,2013-04-04 22:55:00,
2013-04-04 19:00:00,38.0,38.0,30.14,NE,45,11.5,11.5,100,0.11,RA,SKC,0.42,WeatherDisplay:10.37,2013-04-04 23:00:00,
2013-04-04 19:05:00,38.0,38.0,30.13,NNE,22,17.3,17.3,100,0.12,RA,SKC,0.43,WeatherDisplay:10.37,2013-04-04 23:05:00,
2013-04-04 19:10:00,38.0,38.0,30.13,NE,45,11.5,11.5,100,0.10,RA,SKC,0.43,WeatherDisplay:10.37,2013-04-04 23:10:00,
2013-04-04 19:15:00,39.0,39.0,30.13,ENE,67,17.3,17.3,100,0.09,CLR,SKC,0.43,WeatherDisplay:10.37,2013-04-04 23:15:00,
2013-04-04 19:20:00,38.0,38.0,30.13,NE,45,12.0,12.0,100,0.08,CLR,SKC,0.43,WeatherDisplay:10.37,2013-04-04 23:20:00,
2013-04-04 19:25:00,38.0,38.0,30.13,NNE,22,10.4,10.4,100,0.07,CLR,SKC,0.43,WeatherDisplay:10.37,2013-04-04 23:25:00,
2013-04-04 19:30:00,38.0,38.0,30.13,NE,49,8.0,17.0,100,0.00,CLR,SKC,0.43,WeatherDisplay:10.37,2013-04-04 23:30:00,
2013-04-04 19:35:00,38.0,38.0,30.10,ENE,67,11.5,11.5,100,0.06,CLR,SKC,0.43,WeatherDisplay:10.37,2013-04-04 23:35:00,
2013-04-04 19:40:00,38.0,38.0,30.10,NNE,22,11.5,11.5,100,0.04,CLR,SKC,0.43,WeatherDisplay:10.37,2013-04-04 23:40:00,
2013-04-04 19:46:00,38.0,38.0,30.09,NE,45,14.0,14.0,100,0.03,CLR,SKC,0.43,WeatherDisplay:10.37,2013-04-04 23:46:00,
2013-04-04 19:51:00,38.0,38.0,30.09,East,90,15.0,15.0,100,0.02,CLR,SKC,0.43,WeatherDisplay:10.37,2013-04-04 23:51:00,
2013-04-04 19:56:00,38.0,38.0,30.09,NE,45,16.1,16.1,100,0.01,CLR,SKC,0.43,WeatherDisplay:10.37,2013-04-04 23:56:00,
2013-04-04 20:01:00,38.0,38.0,30.09,NE,45,11.5,11.5,100,0.01,CLR,SKC,0.43,WeatherDisplay:10.37,2013-04-05 00:01:00,
2013-04-04 20:06:00,38.0,38.0,30.10,NE,45,11.5,11.5,100,0.00,CLR,SKC,0.43,WeatherDisplay:10.37,2013-04-05 00:06:00,
2013-04-04 20:11:00,38.0,38.0,30.10,NE,45,13.8,13.8,100,0.00,CLR,SKC,0.43,WeatherDisplay:10.37,2013-04-05 00:11:00,
2013-04-04 20:16:00,38.0,38.0,30.10,ENE,67,11.5,11.5,100,0.01,RA,SKC,0.44,WeatherDisplay:10.37,2013-04-05 00:16:00,
2013-04-04 20:21:00,38.0,38.0,30.10,NE,45,10.4,10.4,100,0.01,RA,SKC,0.44,WeatherDisplay:10.37,2013-04-05 00:21:00,
2013-04-04 20:27:00,38.0,38.0,30.11,NE,45,11.5,11.5,100,0.01,,SKC,0.44,WeatherDisplay:10.37,2013-04-05 00:27:00,
2013-04-04 20:32:00,38.0,38.0,30.11,NNE,22,19.6,19.6,100,0.01,CLR,SKC,0.44,WeatherDisplay:10.37,2013-04-05 00:32:00,
2013-04-04 20:37:00,38.0,38.0,30.09,NE,45,17.3,17.3,100,0.02,RA,SKC,0.45,WeatherDisplay:10.37,2013-04-05 00:37:00,
2013-04-04 20:42:00,38.0,38.0,30.09,NE,45,13.8,13.8,100,0.02,RA,SKC,0.45,WeatherDisplay:10.37,2013-04-05 00:42:00,
2013-04-04 20:47:00,38.0,38.0,30.07,NNE,22,18.4,18.4,100,0.03,RA,SKC,0.46,WeatherDisplay:10.37,2013-04-05 00:47:00,
2013-04-04 20:52:00,38.0,38.0,30.07,North,360,11.5,11.5,100,0.04,RA,SKC,0.47,WeatherDisplay:10.37,2013-04-05 00:52:00,
2013-04-04 20:57:00,38.0,38.0,30.07,NNE,22,13.8,13.8,100,0.05,RA,SKC,0.48,WeatherDisplay:10.37,2013-04-05 00:57:00,
2013-04-04 21:02:00,38.0,38.0,30.07,NNE,22,16.0,16.0,100,0.06,RA,SKC,0.49,WeatherDisplay:10.37,2013-04-05 01:02:00,
2013-04-04 21:07:00,38.0,38.0,30.08,ENE,67,18.0,18.0,100,0.07,RA,SKC,0.50,WeatherDisplay:10.37,2013-04-05 01:07:00,
2013-04-04 21:12:00,38.0,38.0,30.08,NE,45,14.0,14.0,100,0.08,RA,SKC,0.51,WeatherDisplay:10.37,2013-04-05 01:12:00,
2013-04-04 21:17:00,38.0,38.0,30.06,NE,45,16.1,16.1,100,0.08,RA,SKC,0.52,WeatherDisplay:10.37,2013-04-05 01:17:00,
2013-04-04 21:22:00,38.0,38.0,30.06,NE,45,19.0,19.0,100,0.10,RA,SKC,0.54,WeatherDisplay:10.37,2013-04-05 01:22:00,
2013-04-04 21:27:00,38.0,38.0,30.06,NE,45,11.5,11.5,100,0.13,RA,SKC,0.57,WeatherDisplay:10.37,2013-04-05 01:27:00,
2013-04-04 21:32:00,38.0,38.0,30.06,NE,45,15.0,15.0,100,0.15,RA,SKC,0.59,WeatherDisplay:10.37,2013-04-05 01:32:00,
2013-04-04 21:37:00,38.0,38.0,30.07,North,360,11.5,11.5,100,0.15,RA,SKC,0.61,WeatherDisplay:10.37,2013-04-05 01:37:00,
2013-04-04 21:42:00,38.0,38.0,30.07,NNE,22,10.4,10.4,100,0.17,RA,SKC,0.62,WeatherDisplay:10.37,2013-04-05 01:42:00,
2013-04-04 21:47:00,38.0,38.0,30.06,NE,45,13.8,13.8,100,0.19,RA,SKC,0.65,WeatherDisplay:10.37,2013-04-05 01:47:00,
2013-04-04 21:53:00,38.0,38.0,30.06,NE,45,12.7,12.7,100,0.21,RA,SKC,0.68,WeatherDisplay:10.37,2013-04-05 01:53:00,
2013-04-04 21:58:00,38.0,38.0,30.05,NNE,22,13.8,13.8,100,0.22,RA,SKC,0.70,WeatherDisplay:10.37,2013-04-05 01:58:00,
2013-04-04 22:03:00,38.0,38.0,30.05,North,360,15.0,15.0,100,0.22,RA,SKC,0.72,WeatherDisplay:10.37,2013-04-05 02:03:00,
2013-04-04 22:08:00,38.0,38.0,30.05,NE,45,12.0,12.0,100,0.23,RA,SKC,0.73,WeatherDisplay:10.37,2013-04-05 02:08:00,
2013-04-04 22:13:00,38.0,38.0,30.05,NNE,22,15.0,15.0,100,0.22,RA,SKC,0.74,WeatherDisplay:10.37,2013-04-05 02:13:00,
2013-04-04 22:18:00,38.0,38.0,30.03,NNE,22,12.7,12.7,100,0.23,RA,SKC,0.76,WeatherDisplay:10.37,2013-04-05 02:18:00,
2013-04-04 22:23:00,38.0,38.0,30.03,NNE,22,11.5,11.5,100,0.23,RA,SKC,0.77,WeatherDisplay:10.37,2013-04-05 02:23:00,
2013-04-04 22:28:00,38.0,38.0,30.04,NNE,22,13.8,13.8,100,0.22,RA,SKC,0.79,WeatherDisplay:10.37,2013-04-05 02:28:00,
2013-04-04 22:33:00,38.0,38.0,30.04,NNE,22,20.7,20.7,100,0.20,RA,SKC,0.79,WeatherDisplay:10.37,2013-04-05 02:33:00,
2013-04-04 22:38:00,38.0,38.0,30.03,NE,45,16.1,16.1,100,0.20,RA,SKC,0.81,WeatherDisplay:10.37,2013-04-05 02:38:00,
2013-04-04 22:43:00,38.0,38.0,30.03,North,360,11.5,11.5,100,0.20,RA,SKC,0.82,WeatherDisplay:10.37,2013-04-05 02:43:00,
2013-04-04 22:48:00,38.0,38.0,30.01,NNE,22,13.0,13.0,100,0.18,RA,SKC,0.83,WeatherDisplay:10.37,2013-04-05 02:48:00,
2013-04-04 22:53:00,38.0,38.0,30.01,NNE,22,12.7,12.7,100,0.15,RA,SKC,0.83,WeatherDisplay:10.37,2013-04-05 02:53:00,
2013-04-04 22:58:00,38.0,38.0,30.00,NNE,22,15.0,15.0,100,0.14,RA,SKC,0.84,WeatherDisplay:10.37,2013-04-05 02:58:00,
2013-04-04 23:03:00,38.0,38.0,30.00,ENE,67,11.5,11.5,100,0.14,RA,SKC,0.85,WeatherDisplay:10.37,2013-04-05 03:03:00,
2013-04-04 23:08:00,38.0,38.0,30.00,ENE,67,16.1,16.1,100,0.13,RA,SKC,0.86,WeatherDisplay:10.37,2013-04-05 03:08:00,
2013-04-04 23:13:00,38.0,38.0,30.00,NNE,22,15.0,15.0,100,0.14,RA,SKC,0.87,WeatherDisplay:10.37,2013-04-05 03:13:00,
2013-04-04 23:18:00,38.0,38.0,29.99,North,360,17.3,17.3,100,0.13,RA,SKC,0.88,WeatherDisplay:10.37,2013-04-05 03:18:00,
2013-04-04 23:23:00,38.0,38.0,29.99,NNE,22,16.1,16.1,100,0.12,RA,SKC,0.89,WeatherDisplay:10.37,2013-04-05 03:23:00,
2013-04-04 23:28:00,38.0,38.0,29.99,North,360,12.7,12.7,100,0.10,RA,SKC,0.89,WeatherDisplay:10.37,2013-04-05 03:28:00,
2013-04-04 23:33:00,38.0,38.0,29.99,NNE,22,9.2,9.2,100,0.11,RA,SKC,0.90,WeatherDisplay:10.37,2013-04-05 03:33:00,
2013-04-04 23:38:00,38.0,38.0,29.99,North,360,9.2,9.2,100,0.09,RA,SKC,0.90,WeatherDisplay:10.37,2013-04-05 03:38:00,
2013-04-04 23:43:00,38.0,38.0,29.99,NE,45,11.5,11.9,100,0.09,RA,SKC,0.91,WeatherDisplay:10.37,2013-04-05 03:43:00,
2013-04-04 23:48:00,38.0,38.0,29.98,NE,45,18.4,18.4,100,0.09,RA,SKC,0.92,WeatherDisplay:10.37,2013-04-05 03:48:00,
2013-04-04 23:53:00,38.0,38.0,29.98,NNE,22,13.8,13.8,100,0.09,RA,SKC,0.92,WeatherDisplay:10.37,2013-04-05 03:53:00,
2013-04-04 23:58:00,38.0,38.0,29.98,ENE,67,11.5,11.5,100,0.08,,SKC,0.92,WeatherDisplay:10.37,2013-04-05 03:58:00,